Powrót do katalogu

BREEZE-M DEB

TANK

AktywnyHEO
NORAD 28395·DEBRIS·🇷🇺 Russia

Wystrzelony Aug 4, 2004 z Baikonur Cosmodrome

Loading…

Następne Przeloty (najbliższe 24 godziny)

TLE

ŚwieżeSource: Space-Track

Epoka: Sep 14, 2026, 06:25 UTC

1 28395U 04031C   26257.26801793  .00008145  00000-0  11466-2 0  9991
2 28395  49.4439   9.5839 5137143 134.3312 281.5094  5.40825962409516

Śledź BREEZE-M DEB w czasie rzeczywistym z AllMySat

Download on the App Store